P/2024 F1 ( PanSTARRS )

Japanese version
Home page
Updated on March 4, 2025

---------------------------------------------------------------------

* Profile

Discovery Date March 18, 2024
Magnitude 20.7 mag
Discoverer Pan-STARRS 1 telescope (Haleakala)

* Orbital Elements

Epoch 2024 Oct. 17.0 TT = JDT 2460600.5                                         
T 2023 Oct. 25.57003 TT                                 Pike                    
q   1.8598547            (2000.0)            P               Q                  
n   0.15414803     Peri.  229.54323     -0.51061583     -0.85198571             
a   3.4449062      Node   251.52161     +0.82117667     -0.44334508             
e   0.4601146      Incl.    7.00833     +0.25483397     -0.27850583             
P   6.39                                                                        
From 53 observations 2024 Jan. 16-Apr. 10, mean residual 0".3.                  

* Magnitudes Graph

        m1 = 15.5 + 5 log d + 10.0 log r

---------------------------------------------------------------------

The orbital elements are published on M.P.E.C. 2025-A174.
The magnitudes graphs are made with Comet for Windows.

---------------------------------------------------------------------

Copyright(C) Seiichi Yoshida (comet@aerith.net). All rights reserved.